Location: ????????
(54.9045°N, 39.1041°E)
Time: 10:35:22
(UTC+00:00)

CZ-2C R/B - Pass Details

Date: 14 April 2024
Orbit: 704 x 904 km, 98.2° (Epoch: 21 May)

Event Time Altitude Azimuth Distance (km) Brightness Sun altitude
Rises 01:28:17 0° 9° (N) 3,179 6.8 -8.0°
Reaches altitude 10° 01:30:50 10° 357° (N) 2,278 5.8 -7.6°
Maximum altitude 01:34:55 26° 302° (WNW) 1,484 4.2 -7.1°
Drops below altitude 10° 01:39:11 10° 248° (WSW) 2,368 4.9 -6.6°
Enters shadow 01:39:44 - 244° (WSW) 2,554 5.0 -6.5°
